Dewpoint
60 57 50 36 16 19 18 19 22 25 35 41 35 30 31 44 40 37 57 64 68 68 70 73 74 74 74 74 74 74 74 74 74 73 73 72 72 71 70 69 68 69 68 66 68 68 68 67 67
55 54 39 26 17 12 13 21 22 24 29 29 31 32 35 39 54 56 56 61 68 69 70 70 73 73 73 73 74 74 73 74 73 73 73 72 72 71 71 70 69 67 68 68 68 70 69 67 67
52 47 29 22 16 8 15 19 22 23 24 27 28 33 39 42 53 55 55 66 70 69 70 71 73 73 73 73 73 72 72 73 73 73 73 72 71 71 71 71 70 69 68 67 68 70 70 68 67
47 36 31 20 16 17 21 26 21 21 20 21 28 26 33 48 47 51 56 64 64 62 64 71 73 73 72 72 73 72 72 71 71 71 72 72 71 70 71 71 71 71 70 68 68 70 70 70 68
39 33 22 20 16 19 26 22 21 18 20 22 25 26 26 41 47 50 52 57 59 59 63 67 71 72 72 71 72 72 72 72 72 71 71 72 72 70 70 71 71 69 68 67 68 70 70 69 69
29 29 15 14 17 20 26 25 20 23 22 21 24 26 27 44 45 47 45 52 54 56 58 61 66 69 70 71 71 71 71 72 72 72 72 72 72 72 72 71 70 69 68 67 68 69 70 69 68
27 17 11 20 17 18 24 27 22 23 23 22 25 24 27 35 43 47 43 49 49 49 51 55 59 63 66 67 68 68 69 69 70 70 71 71 70 71 71 72 70 69 69 67 68 68 71 70 69
35 27 23 18 16 18 27 27 27 26 24 26 27 23 25 29 35 46 44 42 42 42 45 45 49 54 58 59 63 63 63 63 63 65 67 67 67 69 70 70 70 70 70 70 70 69 69 71 70
33 20 15 18 23 22 28 28 28 31 27 27 27 27 28 32 35 38 43 43 43 44 43 43 45 46 50 50 53 61 61 61 61 60 59 59 66 66 67 68 69 70 71 71 70 70 70 70 70
29 19 17 27 25 24 31 32 29 27 27 27 27 27 30 32 32 34 36 37 41 43 44 44 44 46 48 49 49 49 49 54 56 58 58 56 59 60 65 65 66 69 69 69 70 70 69 68 68
31 20 30 29 30 34 31 29 31 29 25 26 24 27 31 31 33 34 35 37 40 42 45 45 43 43 46 50 49 49 51 51 49 47 48 46 46 46 51 64 66 66 66 69 69 69 68 68 67
28 27 32 33 34 32 29 30 30 30 27 28 30 32 32 31 32 33 34 36 38 41 44 46 46 43 45 47 49 47 47 47 47 46 47 46 47 47 46 47 51 61 65 67 68 68 68 68 67
27 29 33 33 32 31 31 30 29 28 29 30 27 25 26 29 29 32 34 36 38 40 42 45 46 47 49 49 51 51 52 50 45 48 47 48 47 47 48 48 49 50 54 62 64 65 66 67 67
27 30 30 32 31 32 31 30 28 24 25 24 23 25 28 30 30 31 32 33 34 36 41 45 47 49 49 50 51 49 50 54 52 47 47 47 47 47 49 49 49 49 50 52 56 62 65 66 67
32 28 28 30 30 29 26 22 24 24 25 22 22 24 29 31 31 31 38 36 36 38 42 45 46 49 51 50 51 50 49 47 46 49 46 47 47 47 48 49 49 50 50 51 52 53 59 62 64
25 25 19 23 26 27 23 15 22 23 21 22 22 24 29 30 31 30 36 39 38 39 41 44 47 49 49 49 48 47 47 48 46 47 49 50 50 50 49 49 50 51 51 51 51 51 52 55 59
14 11 15 16 27 25 21 18 22 23 22 20 22 26 29 31 30 29 30 39 39 40 42 42 44 48 47 47 46 46 47 48 49 50 51 51 51 52 51 50 51 52 52 52 51 50 51 52 54
9 11 14 15 19 23 21 20 21 21 21 20 23 27 31 32 31 31 36 38 41 46 48 48 47 47 47 48 48 49 49 50 51 52 52 53 53 52 52 52 52 52 52 52 52 51 51 52 53
19 18 18 20 22 21 19 19 21 22 23 23 30 29 32 32 32 31 31 34 42 45 47 48 47 47 48 48 48 47 47 50 51 52 53 52 52 52 53 53 52 52 52 52 52 52 51 51 52
20 18 14 19 21 21 21 21 22 23 24 26 29 31 33 33 33 33 31 31 34 41 45 46 47 47 47 49 50 51 51 51 52 52 52 52 52 53 52 52 52 52 52 52 52 52 51 51 52
16 15 16 18 21 23 22 19 14 23 28 29 29 32 34 34 32 33 32 31 32 36 42 44 46 46 47 49 51 51 51 51 51 51 52 53 53 53 53 52 52 52 53 53 53 52 52 50 52
12 19 21 21 21 18 22 18 18 12 22 27 28 32 34 35 35 34 34 33 33 34 40 42 44 46 48 50 50 49 49 48 49 50 51 52 52 52 52 52 52 52 53 52 53 54 54 53 51
16 22 22 24 22 21 20 18 20 12 12 19 26 31 34 36 37 38 37 36 39 40 42 43 44 46 47 49 50 49 49 49 50 50 50 50 51 52 51 52 52 52 53 54 54 54 54 54 53
23 23 25 25 23 19 21 17 18 9 9 24 24 30 31 26 28 30 35 40 41 42 42 43 45 45 47 47 48 49 49 49 49 49 49 49 50 51 51 52 51 52 52 52 53 54 54 54 54
23 23 19 18 17 19 23 15 19 16 20 22 27 22 23 26 26 26 27 29 33 36 39 42 44 45 46 46 46 47 48 48 48 48 48 48 48 49 50 51 50 50 50 50 51 50 51 52 53
20 24 19 9 14 18 22 20 21 16 28 18 21 22 25 26 25 25 26 26 25 26 29 36 41 43 44 44 45 46 47 48 48 48 48 48 48 49 50 50 50 50 50 50 50 50 49 50 52
22 22 24 20 17 17 21 23 23 18 18 15 16 21 22 24 25 25 27 28 28 28 29 30 33 36 38 41 42 43 44 45 45 45 47 48 48 49 50 50 50 50 49 49 49 50 49 50 50
22 24 18 21 14 18 20 20 22 16 16 15 19 23 25 24 25 27 28 29 30 30 31 32 32 32 33 35 37 39 42 43 44 44 44 44 45 47 48 49 49 49 49 49 49 49 49 48 49
23 21 21 22 23 17 13 20 24 18 16 16 23 25 26 26 23 26 28 29 29 31 31 32 32 33 33 34 35 36 38 40 42 43 44 44 45 45 47 48 49 49 48 48 48 48 48 46 46
23 22 22 20 16 20 17 20 27 22 17 22 25 25 25 26 24 25 28 29 30 31 31 31 32 32 33 34 35 34 35 36 37 39 41 43 44 45 45 47 48 48 48 47 47 47 46 45 45
Lifted_Index
7 8 8 8 6 4 4 4 5 5 6 7 7 7 6 5 4 2 -1 -3 -4 -4 -4 -4 -5 -5 -6 -6 -6 -6 -5 -5 -5 -5 -4 -4 -4 -3 -2 -1 -1 -1 -1 -0 -0 -0 1 1 2
8 8 8 7 5 4 3 4 5 6 7 8 8 7 6 5 3 2 -0 -2 -3 -4 -4 -4 -5 -5 -5 -6 -6 -6 -5 -5 -5 -5 -4 -4 -4 -3 -3 -2 -1 -1 -1 -1 -1 -1 0 1 1
9 9 8 6 4 3 3 5 6 7 8 9 9 8 7 6 4 2 1 -1 -3 -3 -3 -4 -4 -5 -5 -5 -5 -5 -5 -5 -5 -4 -4 -4 -4 -3 -3 -3 -2 -1 -1 -0 -1 -1 -1 1 1
10 9 7 5 4 3 4 6 7 8 9 9 9 9 8 6 5 4 2 -0 -2 -2 -3 -3 -4 -4 -4 -5 -5 -5 -5 -5 -4 -4 -4 -4 -3 -3 -3 -3 -3 -2 -1 -0 -1 -1 -1 -0 1
10 8 6 4 3 4 6 7 8 9 9 10 10 9 9 7 6 5 3 2 1 -0 -1 -2 -3 -3 -4 -4 -4 -5 -5 -4 -4 -4 -4 -4 -4 -4 -4 -3 -3 -2 -1 -1 -1 -2 -2 -1 0
8 7 4 3 3 5 7 8 9 9 9 10 10 10 9 8 7 6 5 4 4 3 2 1 -0 -1 -2 -3 -4 -4 -4 -4 -4 -4 -5 -5 -5 -4 -4 -4 -3 -2 -1 -1 -1 -2 -2 -1 -1
7 6 4 3 3 5 7 9 9 9 9 10 10 9 9 10 9 8 7 6 6 6 5 5 4 2 0 -1 -2 -3 -3 -4 -4 -4 -4 -5 -5 -4 -4 -4 -3 -2 -2 -1 -1 -2 -2 -2 -1
8 6 4 3 4 5 7 9 10 9 9 11 11 10 10 11 12 10 9 8 8 7 7 7 6 5 4 2 1 -0 -2 -3 -3 -3 -4 -4 -4 -4 -4 -4 -4 -3 -3 -2 -2 -2 -2 -2 -2
8 6 4 4 5 6 7 9 9 10 10 10 11 12 12 13 13 12 11 10 9 8 8 7 7 7 6 5 4 3 2 0 -1 -2 -2 -3 -3 -4 -4 -4 -4 -4 -4 -3 -3 -2 -2 -2 -2
7 6 5 6 7 7 8 8 9 9 9 10 11 12 13 13 13 13 13 12 11 10 9 8 8 7 6 5 4 5 4 4 2 1 1 0 -1 -2 -3 -3 -4 -4 -4 -4 -3 -3 -2 -2 -2
7 6 7 8 8 8 8 8 9 8 9 10 11 12 13 13 13 13 13 13 12 12 10 9 9 8 6 4 3 3 4 4 4 4 4 4 3 1 -0 -1 -2 -3 -3 -3 -3 -3 -3 -2 -2
7 7 8 8 9 9 8 8 9 9 10 12 13 13 13 13 13 13 13 13 13 12 11 11 10 8 5 2 1 1 2 3 4 4 4 5 5 5 4 3 2 0 -1 -2 -3 -3 -3 -2 -2
7 7 8 9 9 9 9 9 9 10 12 13 14 13 13 13 13 13 13 13 13 13 12 12 10 7 4 1 -0 0 1 2 3 3 4 5 6 6 6 6 5 4 3 2 0 -1 -2 -2 -2
7 7 8 9 9 9 8 8 9 11 12 13 13 13 13 12 13 13 13 13 13 13 12 12 10 7 3 0 -0 -0 0 1 2 3 3 4 5 6 7 7 7 7 6 5 4 3 1 -1 -1
7 7 7 8 9 9 8 7 9 11 12 12 12 13 12 13 13 13 12 12 12 12 11 11 10 7 3 0 -0 0 0 1 2 3 3 4 5 6 6 6 7 7 7 7 7 6 4 2 1
6 5 5 7 8 9 8 7 9 11 12 11 12 12 12 13 13 13 12 12 11 11 11 10 10 7 3 1 0 0 0 1 2 3 3 3 4 4 5 5 6 6 7 7 7 7 6 5 4
4 4 4 6 8 8 7 7 9 11 11 11 11 12 12 13 13 13 12 12 11 10 10 10 9 7 3 1 0 0 -0 0 1 2 3 3 2 3 4 4 5 6 6 6 7 7 7 7 6
4 4 4 6 7 7 6 6 8 10 11 11 11 12 12 12 13 13 12 12 11 10 9 8 7 6 3 2 1 0 -0 0 1 2 2 2 2 2 3 4 5 5 6 6 6 7 7 7 7
5 5 5 6 7 7 6 6 7 9 10 11 11 11 12 12 13 13 12 12 11 9 8 7 6 5 3 2 1 1 1 1 1 1 1 1 1 2 3 3 4 5 5 6 6 6 7 7 7
6 6 6 7 7 7 6 6 6 8 10 11 11 11 12 12 12 12 12 12 11 9 8 8 6 5 4 3 2 2 1 1 2 2 2 2 2 2 3 3 4 4 5 6 6 6 7 7 7
7 6 6 6 6 6 6 5 6 8 10 11 12 12 12 12 11 11 11 11 11 10 9 8 7 6 5 4 3 3 2 2 2 2 2 2 2 2 3 4 4 4 5 5 6 6 6 6 6
7 7 7 7 6 6 5 5 5 7 9 10 12 12 12 11 11 10 10 10 10 9 9 8 7 7 6 5 4 3 3 3 3 3 3 3 3 3 3 4 4 5 5 5 6 6 6 6 6
8 8 8 7 6 5 5 5 5 7 8 9 11 11 11 11 11 10 9 9 9 8 8 8 7 7 6 5 5 4 3 3 3 2 2 3 3 3 3 4 5 5 6 6 6 6 6 6 6
8 8 7 6 5 4 5 5 6 6 7 8 10 10 10 11 11 11 10 9 9 9 8 8 8 7 7 6 5 5 4 4 3 3 3 3 3 3 3 3 4 5 6 6 7 7 7 7 7
8 7 5 3 3 3 5 6 6 6 7 8 10 10 10 10 10 11 10 10 10 10 10 9 9 8 8 7 7 6 5 5 4 4 4 4 4 4 3 3 4 5 6 7 7 8 8 7 7
8 7 5 3 2 4 5 6 6 6 8 9 9 9 9 9 9 10 10 10 10 10 11 10 10 9 9 9 8 8 7 7 6 6 5 5 5 5 5 4 4 5 6 7 8 8 8 8 8
8 7 6 4 3 3 5 5 5 6 7 9 9 9 9 9 9 9 9 9 9 10 10 10 10 10 10 10 10 10 9 9 8 8 7 7 7 7 6 6 5 5 6 7 8 8 8 8 9
8 7 7 6 4 3 3 4 5 6 7 8 9 9 9 9 9 10 10 10 10 10 10 11 11 10 10 11 11 11 11 10 10 9 9 8 8 8 8 7 7 6 6 7 8 8 9 9 9
8 8 7 6 5 3 3 4 6 7 7 8 9 9 9 9 9 10 10 11 11 11 11 11 12 12 12 11 11 11 11 11 11 10 10 10 9 9 9 9 8 8 7 7 8 9 9 10 10
8 8 7 6 5 5 4 5 7 7 7 8 9 9 9 9 9 10 10 11 11 11 11 11 12 13 12 12 12 11 11 11 11 11 11 10 10 10 10 10 9 8 8 8 8 9 10 11 11